GEFSMA_500_meanwind_150.txt.gz
Wind_Speed
26 24 23 23 22 21 20 19 19 18 17 17 18 18 19 20 20 21 22 24 25 26 27 28 29 31 32 33 34 35 35 36 37 38 39 39 39 40 40 40 40 40 40
27 26 25 24 23 22 21 21 20 19 19 18 19 20 20 21 22 23 24 25 26 27 28 29 31 32 33 34 35 36 36 37 38 39 39 40 40 41 41 41 41 40 40
29 28 26 25 24 24 23 22 21 20 20 20 20 21 21 22 23 24 25 26 27 29 30 31 32 33 34 35 36 37 37 38 38 39 40 40 41 41 42 42 41 41 40
30 29 28 27 26 25 24 24 23 22 22 21 21 22 22 23 24 25 26 28 29 30 31 32 33 34 35 36 37 38 38 39 39 40 40 41 42 42 43 42 42 41 41
32 30 29 28 27 26 26 25 24 23 23 23 22 22 23 24 25 26 28 29 30 31 32 33 35 35 36 37 38 39 39 40 40 41 41 42 43 43 43 43 43 42 42
33 32 30 29 29 28 27 26 25 25 24 24 24 24 24 25 27 28 29 30 31 32 33 34 36 36 37 38 39 40 40 41 41 42 42 43 43 44 44 44 43 43 43
34 33 32 31 30 29 28 27 27 26 26 25 25 25 26 27 28 29 30 31 33 34 35 36 36 37 38 39 40 40 41 42 42 43 43 44 44 44 45 45 45 44 44
34 34 33 32 31 30 30 29 28 28 27 27 26 27 28 28 29 31 32 33 34 35 36 37 37 38 39 40 41 41 42 43 43 44 45 45 45 45 46 46 46 45 46
35 34 33 33 32 31 31 30 30 29 28 28 28 28 29 30 31 32 33 34 35 36 37 37 38 39 40 41 41 42 43 44 44 45 45 46 46 46 47 47 47 47 48
36 35 34 33 33 32 32 31 31 30 30 30 30 30 31 31 32 33 34 35 36 37 37 38 39 40 41 41 42 43 44 45 45 46 46 47 47 48 48 48 48 49 49
36 35 35 35 34 33 33 32 32 31 31 31 31 31 32 33 34 34 35 36 37 38 38 39 40 41 42 42 43 44 45 46 46 47 47 48 49 49 49 49 50 50 50
36 36 36 35 35 34 34 33 33 33 32 32 32 33 33 34 35 36 36 37 37 39 39 40 41 42 42 43 44 44 45 46 47 48 49 49 50 50 50 51 51 51 52
36 36 36 36 35 35 34 34 34 33 33 33 33 34 35 36 36 37 37 38 38 39 40 41 42 42 43 43 44 45 46 47 48 49 50 50 51 51 52 52 52 53 54
37 37 37 37 36 36 35 34 34 34 34 34 35 35 36 37 38 38 38 39 39 39 40 41 42 43 43 44 45 46 46 47 49 50 50 51 52 53 53 53 53 54 56
39 39 38 38 37 37 36 36 35 35 35 35 36 37 37 38 39 39 40 40 40 40 40 41 42 43 44 45 45 46 47 48 50 50 52 53 53 54 54 54 55 56 58
40 39 39 39 38 38 37 37 36 36 36 36 37 37 38 39 40 40 40 41 41 41 40 42 43 43 44 45 46 46 48 49 50 51 52 53 54 54 55 55 57 58 60
40 40 40 39 39 39 38 38 37 37 37 37 38 38 38 39 40 40 41 41 41 42 42 42 43 44 45 45 46 47 48 49 51 52 53 53 54 55 56 57 59 60 61
41 40 40 40 39 39 39 38 38 38 38 38 38 39 39 39 39 40 41 41 42 43 43 42 43 44 45 46 46 47 48 50 52 52 53 53 54 55 57 58 60 61 61
41 41 41 40 40 40 39 39 39 39 39 39 38 38 39 39 40 41 42 42 42 43 43 43 43 44 45 46 46 47 49 51 52 52 53 54 55 56 58 59 60 60 61
42 42 42 41 41 40 40 40 40 39 39 38 38 38 39 40 41 41 42 42 43 43 43 43 44 44 45 46 47 48 49 51 51 52 53 54 56 57 59 60 60 60 60
42 42 42 42 42 41 41 40 40 40 39 39 39 39 39 40 41 41 41 42 42 42 43 44 44 45 45 47 48 49 50 50 51 53 54 55 57 58 59 59 60 60 60
42 42 42 42 41 41 41 41 41 41 40 39 39 38 39 39 40 41 41 42 42 42 43 44 44 45 46 47 48 49 50 50 52 53 54 56 58 58 59 59 59 60 60
43 42 42 42 42 42 41 42 41 40 40 39 39 39 39 40 40 40 41 42 42 42 43 44 44 45 46 47 48 49 50 51 53 54 56 57 57 58 58 59 60 60 60
43 43 43 43 42 42 41 40 40 39 39 38 38 38 39 39 39 40 40 41 41 42 43 44 45 46 47 47 48 49 50 52 54 56 57 56 56 57 58 59 59 59 58
43 42 42 41 39 38 38 38 39 39 38 38 38 38 38 39 39 40 40 41 41 42 43 44 45 46 46 47 48 49 51 53 54 55 56 55 55 56 58 59 59 58 57
43 42 41 40 38 36 36 37 37 37 37 37 38 38 38 39 39 40 40 41 41 42 43 43 44 45 46 47 49 50 52 54 55 54 54 56 56 57 57 57 57 56 57

GEFSMA_500_meanwind_156.txt.gz
Wind_Speed
30 28 27 26 25 23 23 22 21 21 20 19 19 18 18 18 19 19 20 21 22 23 24 25 27 28 29 31 32 33 34 35 37 38 38 39 40 41 41 41 42 42 43
31 30 29 27 26 25 24 23 23 22 22 21 20 20 20 20 20 21 21 22 23 24 25 27 28 29 31 32 33 34 35 37 38 39 40 40 41 41 42 42 43 43 44
33 31 30 29 27 26 26 25 24 23 23 22 22 21 21 21 22 22 22 23 24 25 26 28 29 31 32 34 35 36 37 38 39 40 41 42 42 42 43 43 44 44 45
34 33 31 30 29 28 27 27 26 25 24 24 24 23 23 23 23 23 23 24 25 26 28 29 30 32 34 35 36 37 38 40 41 42 42 43 43 44 44 45 45 46 46
36 34 33 32 30 29 29 28 27 27 26 26 25 25 24 24 24 24 25 26 27 28 29 31 32 33 35 36 37 39 40 41 42 43 43 44 44 45 46 46 46 47 47
37 35 34 33 31 30 30 30 29 28 28 27 27 26 26 25 26 26 26 27 28 29 31 32 33 35 36 38 39 40 41 42 42 43 44 45 46 46 47 47 48 48 48
38 37 35 34 33 32 31 31 30 29 29 29 28 28 27 27 27 28 28 29 30 31 32 34 35 36 37 39 40 41 42 42 43 44 45 46 47 48 48 49 49 49 49
40 38 36 35 34 33 32 32 31 31 31 30 29 29 29 29 29 30 30 30 31 33 34 35 36 37 38 40 41 42 43 43 44 45 46 47 48 49 49 50 50 51 51
41 39 38 37 35 34 33 33 32 31 31 31 31 31 31 31 31 31 32 32 33 34 35 37 38 38 40 41 43 43 44 44 45 46 47 48 49 50 50 51 52 51 51
42 41 39 38 36 35 34 34 33 33 33 32 32 32 32 33 33 33 33 34 34 35 36 38 38 40 41 42 43 44 44 45 46 47 48 49 50 51 51 52 52 52 52
43 42 40 39 37 36 35 35 34 34 33 33 33 33 33 33 33 33 34 35 35 36 37 38 39 41 42 43 44 45 45 47 47 48 49 50 51 52 52 53 53 53 53
42 41 40 39 38 36 36 35 35 34 34 34 34 34 34 34 34 34 35 35 36 37 38 39 40 42 43 44 45 45 46 48 48 48 49 51 52 52 53 53 54 54 53
41 40 40 39 38 37 36 36 35 35 35 35 35 35 34 35 35 35 36 36 37 38 39 40 42 42 43 44 46 46 47 48 48 49 50 51 52 53 54 54 55 55 54
41 41 41 40 39 38 37 36 36 36 35 35 35 35 35 35 35 36 36 37 38 38 40 41 43 44 44 45 46 47 48 48 49 50 51 52 53 54 55 55 55 55 56
41 41 41 41 40 39 38 37 36 36 36 36 35 35 36 36 36 37 38 39 39 39 40 42 43 44 45 47 47 47 48 49 50 51 51 53 54 55 55 56 56 57 58
42 41 41 41 40 39 38 37 37 36 37 36 36 36 37 37 38 38 39 40 40 41 41 42 44 45 46 47 48 48 49 49 50 51 52 54 55 56 56 57 57 58 59
42 42 42 42 41 40 39 38 38 37 37 37 37 37 38 38 39 39 40 40 41 42 42 42 44 45 47 48 48 48 49 50 51 52 53 55 56 56 57 58 59 59 60
44 43 43 42 42 41 40 39 39 38 38 38 38 38 39 39 40 40 40 41 42 43 43 42 44 45 46 47 48 48 49 50 51 52 54 55 56 57 58 59 60 61 61
45 44 44 42 41 41 40 40 39 39 38 38 38 39 39 40 40 40 41 41 42 43 43 43 43 45 46 47 47 48 49 50 51 53 55 56 56 57 59 60 61 62 62
46 46 44 43 42 41 40 40 40 39 38 38 39 39 40 41 41 41 41 42 42 42 43 43 44 45 46 47 48 48 49 51 52 53 55 56 57 59 60 61 62 62 61
46 46 45 44 42 41 41 40 40 39 38 39 39 40 41 41 41 41 41 41 42 42 43 44 44 45 46 47 48 49 49 51 52 53 55 57 59 60 60 61 62 62 61
48 47 46 45 44 42 41 41 40 39 40 40 40 40 41 40 40 41 41 42 42 43 44 45 45 45 46 47 48 48 50 50 52 54 56 57 59 60 60 61 62 61 61
49 48 47 46 45 43 42 41 40 39 39 39 40 40 41 40 41 41 41 42 42 42 43 44 44 44 45 46 48 49 50 51 53 54 56 58 59 60 61 62 61 61 60
49 48 46 45 44 43 42 41 40 40 40 40 40 40 40 40 40 40 41 41 41 42 42 42 43 44 45 46 47 49 50 52 53 55 57 58 58 60 61 62 61 60 58
48 48 47 45 43 42 41 41 42 42 41 40 41 40 40 40 39 40 40 40 40 41 42 42 42 43 45 46 47 49 50 52 54 56 57 58 58 59 60 60 59 57 56
48 47 46 45 44 43 42 42 42 41 41 40 40 40 39 39 39 39 39 39 39 40 40 41 42 43 45 46 47 49 51 52 54 55 56 57 58 59 57 56 56 55 55

GEFSMA_500_meanwind_162.txt.gz
Wind_Speed
37 35 34 33 31 30 29 27 26 25 24 23 22 21 20 20 20 20 20 20 20 20 21 22 23 24 25 26 28 29 30 32 33 34 35 36 37 38 39 40 41 42 42
39 37 36 34 33 32 30 29 27 26 25 25 24 23 22 22 22 22 21 22 22 22 23 24 24 26 27 28 29 31 32 33 34 36 37 38 39 40 41 42 43 43 44
40 39 37 35 34 32 31 30 29 28 27 26 25 24 24 24 23 23 23 23 23 24 25 26 26 27 29 30 31 32 33 35 36 37 39 40 41 41 42 43 44 44 45
42 40 38 37 35 33 32 31 30 29 28 27 26 25 25 25 25 25 25 25 25 26 26 27 28 29 30 31 33 34 35 36 38 39 40 41 42 43 44 45 46 46 47
43 42 40 38 36 34 33 32 31 30 29 28 27 27 27 27 27 26 27 27 27 27 28 29 30 31 32 33 34 35 37 38 39 40 41 42 43 44 46 47 47 48 48
45 43 41 39 37 36 34 33 32 31 30 30 29 28 28 29 28 28 29 29 29 29 30 30 31 32 34 35 36 37 38 39 41 41 42 43 45 46 47 48 48 49 49
46 44 42 40 38 37 35 34 33 32 31 31 31 30 30 30 30 30 30 30 30 31 32 32 33 34 35 36 37 38 39 41 42 42 43 45 46 47 48 49 49 50 50
48 46 44 42 40 38 36 36 35 33 33 32 32 32 32 31 31 31 32 32 32 33 33 34 34 35 36 37 38 39 40 42 43 43 44 46 47 48 49 50 50 51 51
48 47 46 44 42 40 38 37 36 35 34 34 33 33 33 33 33 33 33 33 34 34 34 35 35 36 37 38 39 40 41 42 43 45 46 47 48 49 50 51 51 51 52
49 48 46 45 43 42 40 39 38 37 36 35 34 34 34 34 34 34 34 34 34 35 35 36 37 37 38 39 40 41 42 43 44 45 46 48 49 50 51 51 52 52 53
49 48 47 45 44 43 42 41 40 39 38 37 36 35 35 35 35 35 35 35 35 36 36 37 37 37 39 40 41 42 43 44 45 46 47 48 50 50 52 52 52 53 54
49 48 47 46 44 44 43 42 41 40 39 38 37 36 36 36 35 36 36 36 36 36 36 37 38 38 39 41 42 43 44 45 46 47 48 49 50 51 52 52 53 54 54
48 48 47 46 45 44 44 43 42 41 39 38 38 37 37 36 36 36 36 36 36 36 37 38 39 39 40 42 43 44 44 46 46 47 48 50 51 51 52 53 53 54 56
48 49 48 47 46 45 44 43 42 41 40 39 38 37 37 36 36 36 36 36 36 36 37 38 40 41 41 42 43 44 45 46 47 48 49 50 51 52 52 53 54 56 57
49 48 48 48 46 45 44 43 42 41 40 40 38 37 36 36 36 37 37 36 36 36 37 39 40 41 42 43 44 45 45 46 47 48 49 50 51 52 53 54 55 57 58
48 48 48 47 46 45 43 42 42 41 40 39 38 37 36 36 36 36 36 36 36 37 38 39 40 41 42 43 44 45 45 46 47 48 50 51 52 53 54 55 56 58 59
48 48 47 46 45 44 43 42 41 40 39 39 38 37 37 37 36 36 36 36 37 38 38 39 40 41 43 44 44 45 45 46 47 49 50 51 52 53 54 55 57 59 61
47 47 47 46 45 44 43 41 40 39 39 39 39 38 38 37 37 36 36 37 38 38 39 39 40 41 43 44 44 44 45 46 48 49 50 51 52 53 55 57 59 60 61
48 47 47 46 46 44 43 42 41 40 40 39 39 39 38 38 37 37 37 38 38 39 39 40 41 42 42 43 44 45 46 47 48 49 51 52 53 54 56 58 59 61 62
50 47 46 46 45 45 43 42 42 41 40 40 40 39 39 39 38 38 38 38 39 40 40 40 41 42 42 43 44 45 46 47 48 49 51 52 53 55 57 59 60 61 62
51 48 46 46 45 44 43 43 42 41 40 40 40 39 39 39 39 40 39 39 40 40 39 40 40 41 42 43 44 45 46 47 48 49 51 52 54 56 58 59 61 62 62
52 50 47 46 45 44 43 42 42 41 41 41 41 40 40 39 39 40 39 39 39 38 39 39 40 41 42 43 44 45 46 47 48 50 51 53 55 57 58 60 61 62 61
52 51 49 47 46 45 44 43 43 42 41 41 41 41 40 39 39 39 38 38 37 37 38 39 41 41 42 42 44 45 46 47 49 50 52 54 56 57 59 61 61 60 59
51 51 49 48 47 46 44 43 43 42 42 41 41 40 38 38 38 37 37 37 37 37 38 40 40 41 41 42 43 44 45 47 49 51 52 53 55 58 60 60 59 58 57
50 49 48 47 47 46 45 44 42 42 41 41 40 39 38 37 37 37 37 37 37 37 38 39 39 39 40 41 42 43 45 47 49 51 52 54 55 58 59 58 57 57 56
49 47 46 46 45 45 45 45 43 42 41 40 40 39 38 38 37 37 36 36 36 36 37 38 37 38 39 40 42 43 45 47 49 50 52 54 56 57 56 55 55 55 54

GEFSMA_500_meanwind_168.txt.gz
Wind_Speed
45 43 42 39 38 36 35 33 32 30 29 28 27 26 25 24 24 23 23 23 22 23 23 23 24 24 25 26 27 29 30 31 32 34 35 36 37 38 39 40 41 42 43
47 45 43 41 39 38 37 35 34 32 31 30 29 28 27 26 25 25 25 24 24 24 25 25 26 26 27 28 29 30 31 33 34 35 36 38 39 39 40 41 43 44 45
49 47 45 43 41 39 38 37 35 33 32 31 30 29 28 27 27 27 26 26 26 26 27 27 27 28 29 30 31 32 33 34 35 37 38 39 40 41 42 43 44 45 46
49 47 46 44 43 41 40 38 36 35 34 32 31 31 30 29 28 28 27 27 27 28 28 28 29 30 30 31 32 33 34 35 37 38 39 40 41 42 43 44 45 46 48
51 48 47 45 44 42 41 39 37 36 35 33 32 32 31 30 30 29 28 28 29 29 29 30 31 31 32 33 34 35 36 37 38 39 40 41 42 44 45 46 47 48 49
52 50 48 47 45 43 42 40 38 37 36 34 33 32 32 31 30 30 29 30 30 30 31 31 32 33 33 34 35 36 37 38 39 40 42 43 44 45 46 47 48 49 50
54 51 49 48 46 45 43 41 39 38 36 35 34 33 32 31 31 31 31 31 31 31 32 32 33 34 35 35 36 37 38 40 40 42 43 43 44 45 47 48 49 50 51
55 52 51 50 48 46 44 42 40 39 37 36 35 34 33 32 32 32 32 32 32 33 33 33 34 35 36 36 37 38 40 41 42 43 43 44 45 46 48 49 49 51 52
56 53 51 50 49 47 45 43 42 40 38 37 36 35 34 33 33 33 33 33 33 33 34 34 35 35 37 38 39 39 40 42 43 43 44 45 46 47 48 49 50 52 53
57 55 53 51 49 48 46 44 42 41 40 38 37 36 35 34 34 34 34 34 34 34 34 35 36 36 37 38 39 40 41 42 43 44 44 45 46 48 49 50 51 53 54
56 55 53 51 50 48 46 45 43 42 40 39 38 37 36 35 35 35 34 34 34 34 35 36 36 37 38 39 40 41 41 42 43 44 45 46 47 48 49 50 52 54 54
56 55 53 51 49 48 47 45 44 43 42 41 40 39 37 36 36 35 35 34 34 35 35 35 37 37 38 39 40 41 42 42 43 44 45 46 47 49 50 51 53 54 55
56 53 52 51 49 48 47 46 44 43 42 41 40 39 38 37 37 36 35 35 35 35 35 35 37 37 38 39 40 41 42 42 43 44 45 47 48 49 50 52 53 54 56
54 51 49 50 50 49 47 45 44 43 42 41 40 39 38 37 36 36 35 35 35 35 35 36 37 37 38 40 41 41 42 43 43 44 46 47 48 49 50 52 54 55 57
53 52 50 49 48 48 46 45 43 43 42 42 41 40 38 37 36 35 35 35 35 35 35 36 36 37 38 40 40 41 42 43 44 45 46 47 48 50 51 53 54 56 58
50 50 49 48 48 47 47 45 44 42 42 41 40 39 38 37 36 36 36 36 36 35 36 36 36 37 39 40 40 41 41 42 43 44 46 48 49 50 52 54 56 57 59
51 51 50 48 46 45 45 44 43 42 41 40 39 38 38 37 36 35 35 35 35 35 35 36 37 38 39 40 40 40 41 42 43 45 47 48 50 51 52 55 57 59 61
50 49 49 47 45 44 43 43 42 42 41 40 39 37 36 36 35 34 34 34 35 36 36 36 37 38 39 39 39 40 41 43 45 46 47 49 50 51 53 56 58 60 62
50 49 48 47 45 43 42 42 41 40 40 40 38 36 36 35 34 34 34 35 35 36 36 36 37 38 39 39 40 41 42 43 45 46 48 49 50 52 55 58 59 61 62
51 48 47 46 44 43 42 40 39 40 39 39 38 37 36 35 35 35 35 35 36 36 36 37 37 38 39 39 40 41 42 43 44 46 48 49 51 54 56 58 60 61 62
51 49 47 46 44 43 42 41 39 39 39 39 38 37 36 36 35 35 35 36 36 36 36 37 37 38 39 39 40 41 42 43 45 46 48 50 52 55 57 58 60 61 61
51 50 48 45 44 43 42 41 40 40 39 38 37 37 36 36 36 36 35 35 36 36 36 36 37 38 39 40 40 41 42 44 45 46 49 51 53 55 57 58 60 59 59
50 48 46 44 44 43 42 41 40 39 38 38 37 37 36 36 36 35 35 36 36 36 36 36 37 37 38 39 40 41 43 44 45 47 49 51 53 55 57 58 58 58 59
51 48 46 43 42 41 41 40 40 39 38 37 36 36 35 35 35 34 35 34 34 35 35 36 36 37 37 38 40 41 42 44 46 48 49 51 53 55 56 57 57 57 57
51 49 47 44 42 40 39 38 39 38 38 38 37 36 35 35 34 34 34 34 35 35 35 35 35 36 37 38 40 41 42 44 46 48 50 51 53 53 54 54 55 55 56
50 49 48 44 42 41 39 39 38 38 38 38 37 37 36 35 35 35 34 34 34 33 33 33 35 36 36 38 39 40 42 44 46 48 49 51 52 52 51 51 53 53 53

GEFSMA_500_meanwind_174.txt.gz
Wind_Speed
51 49 47 46 44 42 40 39 38 36 35 33 32 31 29 28 28 27 26 26 26 26 26 26 26 27 27 28 29 30 31 32 33 33 33 35 36 37 38 39 40 41 42
54 52 50 48 46 44 42 41 39 38 36 35 34 32 31 30 29 29 28 28 27 27 27 27 28 28 28 29 30 31 33 33 33 34 34 35 37 38 39 40 41 42 43
55 54 53 51 49 46 44 43 41 40 39 37 35 34 33 32 31 30 29 29 29 29 29 29 29 29 30 31 32 33 34 34 34 34 35 36 38 39 40 41 42 43 44
58 56 55 53 51 48 46 45 44 42 40 38 37 35 34 33 32 32 31 30 30 30 30 29 30 30 32 33 34 34 35 34 35 35 36 37 39 40 42 42 43 44 45
60 58 56 55 53 51 49 47 46 44 42 40 38 37 36 34 33 33 32 31 31 31 31 31 31 32 33 34 35 35 35 35 36 37 38 39 40 42 43 43 44 45 47
63 61 59 57 55 53 51 49 48 46 44 42 40 38 37 36 34 33 32 32 32 32 32 32 32 33 34 34 35 35 35 36 37 38 39 41 42 43 44 45 46 46 47
64 63 60 59 57 55 52 50 50 47 45 44 42 40 38 37 35 34 34 33 33 32 33 33 33 34 34 34 34 35 36 37 38 39 40 42 43 44 44 45 46 47 47
66 65 63 60 58 56 54 51 51 49 46 44 43 41 39 38 36 35 35 34 33 33 33 33 34 34 34 34 35 35 36 37 38 40 41 43 44 44 45 46 46 47 48
68 67 65 61 59 57 56 53 52 50 48 46 44 42 40 38 37 36 35 34 34 34 34 34 34 34 34 34 35 36 37 38 39 41 42 43 44 44 45 46 47 47 48
69 68 66 64 60 58 56 53 52 50 49 46 44 42 41 39 38 36 36 36 35 34 34 35 34 34 34 35 36 37 37 38 40 41 43 44 44 44 45 46 47 48 49
68 68 66 65 62 60 57 54 53 52 50 47 44 43 41 39 38 37 36 36 35 35 35 35 35 34 35 36 36 37 38 39 40 42 43 43 44 44 45 46 47 48 49
67 67 66 64 63 61 58 55 53 52 50 47 44 43 41 40 38 38 37 36 36 35 35 35 35 35 35 36 36 37 38 39 40 42 42 43 43 44 45 46 47 48 49
63 64 65 64 62 60 58 55 52 51 50 47 45 43 41 41 39 38 37 37 36 36 36 36 36 36 36 36 36 37 38 39 40 41 42 43 43 44 45 46 47 49 50
61 63 62 63 60 58 57 54 52 51 49 47 45 43 41 41 39 38 37 36 36 36 36 36 36 36 35 36 37 37 38 39 40 41 42 43 43 44 45 46 48 49 51
58 60 60 60 61 59 57 53 50 49 49 47 45 43 41 41 39 38 36 36 36 36 35 35 35 35 36 36 36 37 38 39 40 41 42 42 43 44 45 47 49 51 53
56 59 59 58 59 58 56 52 50 49 48 46 44 42 40 40 39 37 36 36 36 36 35 35 35 35 35 36 36 37 38 39 40 41 42 42 43 45 46 49 51 52 55
53 56 57 56 56 55 52 50 50 48 47 45 43 42 39 39 39 37 36 36 36 35 35 35 35 35 35 35 36 38 39 39 40 40 41 42 44 46 48 50 52 54 56
51 53 55 57 56 54 51 48 49 48 46 44 42 41 40 39 38 37 36 35 35 35 35 35 34 34 34 35 37 37 37 38 39 40 42 43 45 47 49 51 53 55 55
49 51 53 55 56 53 50 49 48 46 45 44 41 39 39 39 38 36 36 35 34 34 34 33 33 33 34 35 36 36 37 38 39 41 43 44 46 48 50 52 53 54 54
45 48 50 51 51 52 51 47 46 45 42 42 39 38 38 37 37 36 35 35 34 33 33 33 33 33 34 35 35 36 37 38 40 42 43 45 47 49 51 52 53 52 53
44 46 48 49 49 50 49 46 45 45 43 41 40 38 38 37 37 36 35 35 34 33 32 32 32 33 33 34 35 36 37 38 40 42 43 45 47 49 51 51 51 51 52
44 46 47 47 48 50 49 46 43 43 41 39 38 36 36 36 35 35 36 35 34 32 32 32 31 32 33 34 35 35 37 38 40 41 43 45 47 49 50 50 50 51 52
45 44 45 47 45 46 47 45 43 40 39 38 37 37 36 36 35 35 35 33 32 32 32 31 31 32 33 33 34 35 37 38 40 41 44 45 47 49 49 49 50 50 51
43 43 45 46 45 44 44 43 41 40 38 37 36 35 35 35 34 34 33 32 31 31 31 30 31 32 33 33 34 35 37 38 40 42 44 45 47 48 49 49 49 49 50
42 43 44 44 43 42 41 39 39 38 37 36 35 35 35 35 34 33 33 32 31 31 31 31 31 32 32 32 34 35 37 39 40 42 44 45 46 46 47 47 48 48 49
43 44 45 44 43 41 40 38 37 36 36 36 35 34 35 34 32 32 31 31 30 30 31 30 30 30 31 32 34 35 37 39 41 42 43 44 44 45 45 45 46 47 47

GEFSMA_500_meanwind_180.txt.gz
Wind_Speed
54 52 51 50 48 46 45 43 41 40 39 38 36 35 34 33 32 31 30 29 28 28 28 28 28 28 28 28 29 30 31 32 33 34 34 35 35 35 35 36 37 38 39
57 56 54 53 51 50 47 46 44 42 41 40 39 37 36 35 34 33 32 31 30 30 29 29 29 29 29 30 30 31 32 33 34 35 35 35 36 36 36 37 38 39 41
59 57 57 55 53 52 51 49 47 45 44 43 41 39 38 37 35 34 33 32 32 31 31 30 30 30 31 31 31 32 33 34 34 35 35 36 37 37 37 38 40 41 43
60 60 59 58 56 55 54 52 50 47 46 45 43 42 40 39 37 36 35 34 33 32 32 31 32 32 32 32 32 33 34 35 35 35 36 37 37 38 38 40 41 43 44
62 61 61 60 59 58 56 55 53 50 48 46 45 44 43 41 39 38 37 36 35 34 33 33 33 32 32 33 33 34 35 35 35 36 37 37 38 39 40 41 43 44 45
65 63 63 63 62 60 59 57 55 53 51 49 47 46 45 43 41 40 39 38 36 36 35 34 33 33 33 34 34 35 35 35 36 37 37 38 38 40 41 42 44 45 45
66 65 64 64 64 63 61 60 58 56 53 51 50 48 47 44 43 42 41 39 38 37 36 35 34 34 34 34 35 35 35 36 37 37 38 39 39 40 42 43 44 45 46
67 66 65 66 65 64 63 61 61 58 55 54 51 50 49 46 45 43 41 40 39 38 37 36 35 35 35 35 35 36 36 37 38 38 39 39 40 41 42 44 44 45 47
65 66 66 65 65 64 64 63 62 61 57 56 53 52 51 49 46 44 42 40 40 39 38 37 36 36 36 36 36 36 37 38 38 39 39 39 40 41 43 44 45 46 47
63 64 67 66 65 64 65 65 63 62 59 57 55 53 52 50 47 45 43 42 41 41 40 38 37 36 36 36 36 37 37 37 38 39 39 39 40 42 43 44 45 47 47
61 63 65 65 64 64 65 66 64 63 61 58 56 55 53 51 49 47 45 43 42 41 40 39 38 37 36 36 37 37 37 38 38 39 39 40 40 41 43 44 46 47 47
60 61 63 65 64 63 65 66 65 62 60 59 57 56 54 52 50 47 45 44 42 41 40 40 38 37 36 36 36 36 37 38 38 39 40 40 41 42 43 45 46 47 47
61 61 61 62 62 61 62 64 63 61 61 59 58 56 54 52 51 47 46 45 43 41 40 39 38 36 35 35 35 36 37 37 38 39 40 40 41 42 43 45 46 47 48
59 60 60 59 61 61 59 61 61 60 61 59 57 56 54 52 51 47 46 45 44 42 40 39 38 35 34 35 35 36 37 37 38 39 39 40 41 42 43 45 46 48 49
57 58 59 56 59 58 57 59 60 59 60 58 56 55 53 51 49 47 45 44 42 40 39 38 37 35 35 35 36 37 37 37 37 38 39 40 41 42 44 45 47 49 50
55 57 57 57 58 59 57 58 57 58 60 58 55 53 52 50 48 46 44 43 42 40 38 37 37 35 35 35 36 37 37 37 38 38 39 40 41 42 45 46 48 49 50
52 55 55 56 56 55 54 57 57 57 58 55 52 52 51 50 47 46 44 43 41 40 38 37 36 36 36 36 35 35 36 37 38 38 38 39 41 43 45 46 48 49 51
49 52 53 55 55 53 52 54 54 54 55 52 51 51 50 49 46 45 44 44 42 39 38 37 37 36 36 35 34 35 36 37 37 37 38 40 42 43 45 46 48 50 51
44 48 51 53 51 49 50 50 49 51 52 51 50 49 50 48 45 44 43 42 41 39 38 37 36 36 35 34 34 34 35 36 36 37 39 40 42 43 45 47 49 50 51
41 44 47 48 48 47 46 46 46 48 49 50 49 48 48 47 45 43 42 41 39 38 38 37 35 35 34 34 34 33 34 35 36 37 39 40 42 43 45 48 49 50 51
40 41 42 44 45 44 43 45 45 46 47 48 47 46 44 43 44 43 41 39 37 36 36 36 35 34 33 33 33 32 33 34 35 37 39 41 42 44 46 48 49 50 50
37 40 41 41 42 44 45 45 44 43 43 44 45 44 43 42 41 40 38 37 36 35 35 33 33 32 32 32 32 32 33 34 36 37 39 40 42 44 46 47 48 49 50
36 38 40 40 40 42 44 44 42 41 41 41 42 42 41 41 39 38 37 35 34 33 32 31 31 31 30 31 31 32 33 34 36 37 38 40 42 43 45 46 47 48 49
37 39 40 40 40 41 43 44 41 42 41 41 39 38 39 40 38 37 36 34 33 32 32 31 30 30 30 30 31 32 33 35 36 37 38 39 41 43 45 46 47 48 49
36 37 39 39 39 39 41 41 41 42 42 41 38 37 39 39 37 35 34 33 32 32 31 31 30 30 30 31 31 32 33 34 35 36 38 39 41 43 45 46 47 48 48
36 36 38 38 38 38 38 39 41 42 42 41 39 38 38 36 36 35 34 33 31 30 30 30 29 29 30 31 31 32 33 33 34 36 37 40 42 43 45 46 47 47 47